Tracking 28096 objects as of 28-Sep-2023
HD Live streaming from Space Station
objects crossing your sky now

FLOCK 4X 39

Track FLOCK 4X 39 now!
10-day predictions


NORAD ID: 51029
Int'l Code: 2022-002AX
Perigee: 473.4 km
Apogee: 484.3 km
Inclination: 97.4 °
Period: 94.0 minutes
Semi major axis: 6849 km
RCS: Unknown
Launch date: January 13, 2022
Source: United States (US)
Launch site: AIR FORCE EASTERN TEST RANGE (AFETR)
Your satellite tracking list
Your tracking list is empty




NASA's NSSDC Master Catalog

Two Line Element Set (TLE):
1 51029U 22002AX  23270.47576412  .00021397  00000-0  70681-3 0  9990
2 51029  97.4271 338.8866 0008002 218.8220 141.2448 15.31376877 94481
Source of the keplerian elements: AFSPC